Theta_e
352 353 353 354 355 355 356 357 357 357 357 357 357 356 356 356 355 354 349 345 345 346 346 347 346 346 343 342 340 338 335 333 332 332 331 331 330 330 329 329 330 328 328 330 331 332 332 333 335 335 336 341 342 341 341 342 342 342 342 341 341 342 342
350 352 352 354 355 355 356 357 356 357 357 357 357 357 356 355 355 353 349 345 345 346 346 346 347 346 345 344 343 339 336 336 334 334 334 333 332 331 331 330 332 330 328 329 331 331 332 332 333 334 335 339 341 340 341 342 343 343 342 340 340 342 343
347 350 352 353 354 354 355 357 357 357 357 357 357 356 356 355 353 351 348 345 345 346 347 346 347 347 347 347 346 343 340 339 337 337 337 336 334 332 332 332 333 332 331 331 332 332 332 333 333 334 335 337 338 338 340 342 342 342 342 340 340 341 342
343 347 350 353 354 354 355 356 356 356 357 356 357 356 355 354 353 351 348 345 345 346 346 347 347 347 347 347 347 346 344 342 340 338 338 337 336 334 333 333 333 334 334 334 334 334 335 334 333 334 335 336 337 336 338 340 341 342 341 341 341 340 340
343 344 349 352 353 354 355 355 356 356 357 356 356 356 356 355 353 352 348 345 344 346 346 347 347 348 348 348 348 348 346 344 342 340 339 338 337 336 335 335 335 335 335 336 337 336 336 335 333 333 334 336 337 336 337 338 339 340 341 341 342 340 339
343 345 348 352 354 354 355 355 355 355 356 356 355 357 357 356 355 353 350 346 345 345 345 346 348 347 348 348 348 348 348 347 345 343 341 340 340 339 338 337 337 337 337 338 338 338 337 335 334 333 334 334 336 336 336 336 337 338 339 341 341 340 341
341 345 349 350 352 354 355 355 354 354 355 355 356 356 357 357 356 355 354 351 347 346 345 345 346 346 347 348 348 348 349 348 347 346 345 344 343 342 341 340 340 340 340 339 339 338 337 335 334 333 333 334 335 337 336 336 336 335 338 340 339 338 340
340 345 350 351 352 354 354 354 355 354 355 355 355 356 357 356 357 356 356 355 351 350 349 347 346 345 346 346 347 348 348 348 348 347 347 346 346 345 344 343 342 341 341 340 339 338 337 336 334 333 333 333 334 336 336 336 336 335 337 339 338 336 336
340 345 350 351 352 352 354 354 355 354 355 355 355 355 356 356 357 356 357 356 354 353 351 349 349 347 345 345 346 346 347 348 348 347 347 347 347 346 345 345 343 342 341 340 338 337 336 336 336 334 333 333 334 335 335 335 335 334 336 336 335 334 334
338 345 350 351 351 352 353 354 355 355 354 355 354 355 355 356 356 357 357 357 355 354 352 352 353 351 346 343 344 345 346 347 347 347 348 348 347 347 347 347 346 342 340 338 338 338 336 335 335 335 333 333 334 334 335 335 334 334 334 333 333 333 333
338 344 350 352 351 351 352 354 356 355 355 356 354 354 355 355 356 357 356 356 355 355 354 354 355 354 350 344 343 345 346 346 347 347 348 347 349 349 349 350 350 346 340 337 339 339 337 336 336 336 334 333 334 334 334 334 333 333 332 332 332 334 333
340 346 352 353 352 352 352 354 356 356 356 356 355 354 355 355 356 356 356 356 355 355 356 356 356 356 353 348 344 344 344 345 346 347 347 347 349 351 351 351 353 351 343 337 338 338 337 336 335 335 335 334 333 333 333 333 333 332 332 331 332 333 334
339 344 348 352 353 353 352 354 357 357 356 355 355 354 354 355 355 355 355 355 355 356 357 356 357 357 355 352 347 344 344 345 345 347 348 347 348 351 352 352 353 353 349 341 336 338 339 337 336 334 335 335 333 333 333 333 333 332 331 331 331 332 333
336 337 342 347 350 352 354 355 357 358 357 356 355 354 355 355 355 354 355 355 355 356 356 357 356 357 356 353 350 347 344 344 346 345 346 346 346 349 352 353 353 354 353 346 338 340 341 339 337 334 333 334 334 333 333 333 333 332 332 331 330 330 332
335 333 336 342 348 352 353 354 358 358 356 355 355 355 355 355 355 355 355 355 356 355 355 357 357 356 356 354 349 346 344 345 347 345 345 346 346 347 349 351 352 352 352 347 342 342 343 342 342 339 334 333 333 333 333 332 333 332 332 331 330 329 330
339 336 334 335 343 350 351 353 356 357 354 353 354 355 355 355 355 354 354 355 355 356 356 357 357 357 356 353 348 346 345 346 346 345 345 346 345 346 347 348 349 350 349 346 344 344 344 344 346 346 341 335 332 333 333 331 332 332 331 330 329 329 328
343 345 343 339 339 344 349 351 354 356 354 351 351 352 354 355 354 354 354 355 355 355 355 356 357 356 353 351 350 349 347 345 345 345 344 345 345 346 347 347 348 348 348 347 346 345 345 345 345 347 348 343 335 332 332 332 331 331 330 330 329 328 328
350 352 353 352 348 345 346 349 352 354 352 348 349 351 353 355 355 354 354 355 355 356 355 356 356 355 353 352 352 349 347 345 345 345 345 344 344 345 345 347 347 348 347 347 347 346 346 346 345 346 349 348 343 338 335 332 332 331 330 330 329 329 328
354 355 356 358 358 354 349 346 348 351 349 347 349 351 352 354 354 354 354 355 355 355 354 355 357 356 354 353 352 349 346 346 345 346 345 345 344 345 345 346 346 347 347 347 348 347 347 347 347 346 347 348 348 343 339 336 333 331 330 330 329 329 328
355 356 357 358 359 359 357 351 346 348 350 348 346 348 351 353 353 354 354 355 355 355 355 355 357 357 355 353 351 348 346 346 346 346 346 344 345 344 345 346 346 347 347 347 348 347 347 347 347 347 347 347 347 345 341 340 336 331 330 331 330 329 328
355 356 357 358 359 360 361 356 348 345 351 351 348 349 352 355 354 354 355 355 355 355 356 356 357 358 356 353 350 347 346 346 347 346 346 346 345 345 345 346 346 347 347 348 347 347 348 347 347 348 348 347 348 346 343 341 338 332 330 330 330 330 329
355 356 356 358 358 359 361 359 349 342 347 352 350 350 353 354 355 355 355 355 355 355 356 356 357 358 357 352 349 348 347 347 347 347 347 346 346 346 345 346 346 347 347 348 348 348 348 347 348 348 348 347 348 347 346 344 340 335 330 330 330 331 331
354 355 356 357 358 360 359 356 348 342 346 352 351 350 352 353 354 355 354 354 355 355 356 356 356 356 354 351 349 347 347 347 347 347 347 347 347 346 347 346 346 346 347 347 348 348 348 348 348 348 348 349 348 348 348 346 344 339 334 333 331 332 332
353 354 356 357 359 359 354 350 346 343 347 351 351 350 351 353 354 354 354 354 355 355 356 356 355 353 351 349 347 347 347 347 347 347 347 347 348 347 347 347 347 347 347 347 347 348 348 348 348 348 348 349 349 349 348 348 347 344 340 338 337 336 335
353 355 355 356 359 357 351 347 347 345 347 352 352 349 351 353 354 354 354 355 356 356 357 357 354 350 347 347 347 347 347 347 346 348 347 348 348 348 347 348 347 347 348 347 347 348 348 348 348 348 349 349 349 350 349 349 349 348 344 343 342 341 341
353 354 355 357 359 357 351 349 349 348 349 353 351 350 353 354 353 354 354 356 356 356 356 355 351 348 346 347 347 347 346 347 347 347 348 348 349 348 348 348 347 347 347 347 348 348 347 348 348 348 348 349 349 351 350 350 351 350 348 347 346 345 345
353 354 355 356 358 356 352 351 352 350 350 352 350 352 354 354 354 354 355 356 356 356 356 354 350 347 347 346 347 347 346 347 347 348 348 349 349 349 349 348 348 348 347 348 348 348 348 349 349 350 350 350 350 351 351 351 352 352 351 350 348 348 349
353 353 354 356 357 356 354 353 353 350 350 353 353 354 354 354 353 355 355 355 354 354 356 355 351 347 347 347 347 347 347 348 347 348 348 348 349 349 348 348 349 349 348 349 348 350 350 350 350 351 352 354 353 353 352 352 353 355 355 354 354 352 353
353 353 353 355 356 357 357 355 352 351 352 354 353 353 354 354 354 353 352 351 351 353 356 355 350 346 347 347 347 347 347 348 347 348 348 349 349 349 349 349 350 350 350 350 351 352 352 353 353 354 355 356 357 357 356 355 355 356 357 357 358 357 356
353 353 353 354 354 357 358 358 354 351 353 355 354 354 355 355 353 350 348 347 350 353 354 353 350 348 347 347 348 348 348 348 348 349 349 349 349 349 350 350 350 351 352 352 352 353 354 355 356 358 358 359 360 360 361 361 360 359 359 359 360 359 359
352 353 353 353 354 355 358 359 358 356 355 355 355 355 357 357 352 348 348 349 349 352 354 353 351 349 348 348 348 349 349 349 349 349 349 350 350 350 350 351 351 351 352 352 353 354 355 356 358 359 360 361 362 362 363 363 362 362 361 360 361 361 361
350 351 352 353 353 354 355 357 359 361 361 359 357 357 358 360 355 349 349 350 349 350 353 352 349 348 348 348 349 349 349 350 350 350 350 351 352 352 350 351 352 352 352 353 354 354 355 357 359 359 358 360 363 363 363 364 364 363 363 362 361 362 361
348 349 350 351 352 353 354 355 356 359 361 361 362 362 362 362 359 353 349 349 349 350 351 349 349 349 349 349 349 349 349 350 350 352 353 353 355 357 355 352 353 354 353 352 354 355 355 357 359 361 360 362 363 364 364 364 364 364 363 363 362 363 363
347 348 347 348 350 351 352 353 354 356 357 358 360 362 362 363 363 359 352 348 350 351 350 348 349 350 350 350 350 350 350 351 350 354 357 356 355 358 359 357 355 357 356 354 355 357 356 357 359 362 363 364 364 364 365 365 364 365 365 364 363 363 362
345 346 345 346 348 349 350 351 352 353 354 355 356 356 357 359 359 357 353 351 351 351 350 348 349 351 350 350 351 351 352 352 350 352 358 360 357 357 359 360 361 362 361 360 358 358 359 360 362 362 363 364 365 365 366 366 366 366 366 365 363 363 363
344 344 343 344 345 346 348 349 349 351 353 353 354 355 355 355 355 353 351 351 350 350 350 350 351 351 351 351 352 351 351 352 352 352 356 362 363 360 356 358 361 362 363 364 363 361 360 362 363 364 364 365 366 366 366 366 366 366 365 363 362 362 363
341 342 342 343 343 344 346 346 347 349 350 352 353 355 355 355 355 355 353 353 352 351 351 350 349 351 352 352 352 352 352 352 355 356 355 359 366 366 360 356 359 359 359 362 363 362 362 362 362 363 364 364 364 365 365 365 365 364 363 363 362 362 361
339 341 342 342 342 343 344 345 346 347 348 350 352 353 354 355 356 357 358 358 358 358 357 355 352 353 356 355 354 353 355 355 356 358 357 358 364 368 364 360 358 358 358 359 360 361 361 361 361 361 362 362 362 363 363 364 363 363 362 362 362 362 362
Wind_Speed
23 25 27 27 28 30 32 35 35 36 36 36 37 37 37 36 36 38 41 43 41 40 40 40 39 38 37 37 38 39 40 40 40 39 38 37 36 35 34 32 30 29 27 26 25 23 22 20 19 19 17 15 14 14 13 13 13 12 11 11 11 10 10
22 23 26 27 28 30 32 33 34 35 36 37 37 38 38 38 40 41 43 44 43 42 41 41 40 39 37 36 36 37 39 39 39 39 38 37 37 36 35 33 31 29 28 27 27 26 24 22 20 20 19 16 15 15 15 14 14 13 13 12 12 11 10
21 22 25 27 29 31 33 34 35 36 36 37 37 39 40 41 42 44 45 45 44 42 41 41 40 39 38 37 36 36 37 37 38 38 38 37 37 36 35 33 31 29 28 28 27 27 25 24 22 21 20 18 17 17 16 15 15 14 14 13 13 12 12
23 23 25 28 30 31 33 35 37 37 37 38 39 40 42 43 43 44 45 46 44 43 42 42 40 39 38 37 36 36 36 36 36 36 36 36 36 36 35 35 32 30 29 28 28 27 26 25 24 22 21 19 19 18 17 16 15 15 14 14 14 13 13
25 25 25 28 30 31 32 34 36 37 37 38 39 39 40 41 42 42 44 46 45 44 43 42 40 39 38 37 36 36 35 35 35 35 35 35 35 35 35 35 33 31 30 29 28 28 27 26 25 24 22 21 20 19 19 18 17 17 16 15 15 15 14
25 26 26 27 29 30 32 34 36 38 39 39 39 39 39 39 41 41 43 44 45 44 43 42 41 40 39 38 37 36 35 34 34 35 35 34 34 34 34 34 32 31 30 29 29 28 28 27 26 25 24 22 21 20 20 20 19 19 18 17 17 17 16
23 24 26 27 29 31 33 35 36 37 38 38 38 38 37 38 39 39 39 41 43 44 44 44 43 42 41 40 38 38 36 35 34 34 34 34 34 34 34 33 32 31 30 29 29 29 28 28 27 26 25 23 22 21 21 21 21 21 20 19 19 18 18
23 24 26 27 29 30 32 34 36 36 36 36 35 36 37 37 38 38 38 39 41 42 43 44 44 44 43 41 41 40 38 36 35 34 34 33 34 34 34 34 32 31 30 30 29 29 28 28 27 27 26 25 24 23 22 22 21 21 21 20 21 20 20
21 23 26 27 29 30 31 33 34 34 35 35 36 37 38 38 38 39 40 39 39 40 42 42 42 44 44 43 42 41 39 37 36 35 34 33 33 33 33 32 31 30 30 30 29 28 28 28 28 28 27 26 26 25 24 23 22 21 21 21 22 21 21
21 24 25 26 27 28 29 29 30 31 33 35 37 38 38 39 39 39 39 39 39 40 41 41 40 41 43 44 43 41 40 39 37 36 35 34 34 33 32 31 30 30 30 29 28 28 28 28 28 28 28 28 28 27 26 25 24 22 22 22 22 22 22
18 22 23 24 24 26 27 27 29 32 34 37 38 37 37 39 39 38 39 40 40 39 40 40 39 39 42 44 43 42 42 40 39 37 36 35 35 34 32 30 29 29 29 29 28 28 28 28 28 28 29 29 29 28 28 27 25 24 23 22 22 22 22
12 15 17 18 20 22 24 26 29 33 36 38 39 37 38 39 38 38 38 40 39 38 38 39 38 38 40 42 43 43 42 41 40 39 37 36 35 33 32 30 29 29 29 29 29 29 29 29 28 29 29 30 30 29 29 28 27 26 25 24 23 23 23
9 11 13 14 15 19 21 24 27 31 35 38 38 37 38 39 39 38 38 39 38 37 37 38 38 38 39 41 41 42 43 42 41 40 38 37 36 34 32 31 30 29 29 30 30 30 30 29 29 29 30 30 29 29 30 29 28 27 26 25 25 25 25
6 8 11 13 15 19 22 25 26 29 34 35 35 35 36 37 38 38 38 39 38 37 37 38 39 39 40 41 41 42 42 42 41 41 40 38 37 35 33 32 30 30 30 30 30 30 29 29 30 30 31 30 30 30 30 30 29 29 28 27 27 27 27
6 8 9 12 16 21 24 26 28 31 34 35 34 34 34 34 35 36 37 37 37 37 37 37 39 39 40 41 43 42 42 41 41 41 40 39 38 37 36 34 33 32 32 32 31 29 29 29 29 30 31 31 30 30 30 30 30 30 29 28 28 28 29
7 7 7 10 15 20 24 27 29 32 36 37 35 35 35 34 34 36 36 36 38 38 37 37 38 40 41 43 44 44 42 42 42 42 41 41 39 38 37 36 35 34 34 34 32 30 30 30 29 29 29 31 31 31 31 31 31 31 31 29 29 29 29
9 8 7 8 10 16 22 25 29 32 35 38 39 38 37 36 36 36 36 36 38 39 38 38 40 42 44 44 44 44 43 42 42 42 42 41 40 39 37 37 36 36 35 35 33 32 32 31 31 30 29 30 31 32 32 32 32 32 31 30 29 29 30
13 12 10 10 9 12 17 22 26 30 34 38 40 40 39 38 37 36 36 37 38 39 38 39 40 43 45 44 43 44 44 43 42 42 42 42 40 39 37 36 36 36 36 35 34 34 34 33 33 33 31 30 31 32 32 33 33 33 32 30 29 30 30
16 16 15 14 13 13 16 19 23 29 34 36 38 40 41 41 40 39 39 39 38 38 38 38 39 41 44 43 43 45 44 43 42 42 42 42 40 39 37 36 37 37 37 36 35 35 35 35 34 34 34 33 32 33 33 33 33 33 31 30 29 30 31
19 19 19 19 17 17 17 19 22 27 32 35 37 39 40 40 41 40 38 37 36 36 37 37 37 39 42 44 44 45 43 42 42 42 42 42 40 39 38 37 37 37 37 36 36 36 36 36 35 35 35 35 35 35 34 33 34 33 31 29 29 30 31
20 20 22 22 21 20 19 19 22 26 30 34 36 36 37 37 37 35 34 34 35 36 37 37 36 36 40 43 44 43 42 41 42 42 42 42 40 39 38 38 38 37 37 36 37 37 36 36 35 36 36 35 35 36 36 35 35 34 32 29 29 30 31
21 22 23 24 24 25 24 23 23 26 30 32 33 33 36 37 36 34 34 34 35 35 36 37 36 35 38 42 43 42 41 41 42 42 42 41 41 40 39 39 38 38 37 37 37 37 36 36 35 35 35 35 35 35 36 36 36 36 33 31 30 30 31
23 24 24 25 26 27 26 24 23 24 27 29 31 33 35 36 35 34 34 33 34 35 35 36 37 38 41 42 42 40 40 40 41 41 41 41 41 41 40 40 39 38 38 38 37 37 37 36 35 34 34 34 35 35 35 35 36 36 35 33 32 32 33
23 23 24 25 26 26 24 22 21 22 25 28 31 34 34 34 34 34 34 34 34 35 35 36 39 42 43 42 40 39 39 39 39 39 40 41 41 41 40 40 40 39 38 37 37 36 36 35 34 34 34 34 35 35 34 34 35 36 35 34 33 33 33
23 23 24 25 24 23 20 18 18 20 24 27 31 33 33 34 35 34 34 35 34 34 35 37 40 43 42 40 38 37 37 37 37 38 39 40 40 40 40 40 38 37 36 36 35 35 34 34 34 34 34 34 35 34 34 34 34 35 35 34 33 32 33
23 23 24 23 21 19 16 15 16 20 24 28 31 32 33 34 35 35 35 35 33 34 36 38 40 40 38 37 37 36 36 35 35 36 37 39 39 39 39 38 36 36 35 35 35 34 34 35 35 35 35 35 34 34 34 33 33 34 35 34 33 33 32
22 21 20 20 19 16 12 13 17 20 23 27 31 32 33 34 34 35 36 35 34 35 36 37 38 37 36 37 36 35 34 34 34 35 35 36 37 37 37 36 35 35 35 34 34 34 34 35 34 34 34 34 34 34 34 33 33 33 34 34 34 33 32
17 16 15 14 14 11 9 12 16 19 21 26 30 32 33 34 35 36 37 37 38 37 34 34 35 36 35 35 35 33 32 32 32 33 33 34 34 34 34 34 34 34 34 33 33 34 34 35 34 33 32 32 32 33 33 34 33 33 33 34 33 32 32
11 12 11 10 8 6 5 9 15 19 21 25 29 31 32 34 37 39 40 40 39 36 33 33 35 35 34 34 33 32 31 31 31 31 32 33 32 32 33 33 33 34 34 32 33 33 32 31 30 30 29 29 28 28 28 30 31 32 33 32 32 31 32
8 8 8 7 6 3 0 5 12 17 20 23 26 28 30 33 38 40 40 40 38 34 33 35 35 34 34 33 33 32 32 31 31 30 31 31 31 31 32 32 32 33 32 31 31 31 30 28 25 24 24 24 24 23 22 22 25 28 31 31 30 30 30
9 8 8 7 5 3 3 3 6 11 16 20 23 25 26 30 36 38 37 37 36 34 33 35 36 34 33 32 32 32 31 30 29 28 29 30 30 30 31 30 31 32 31 30 29 29 29 27 24 23 23 22 21 22 22 21 22 24 27 29 29 28 28
11 12 11 10 9 7 4 4 5 7 11 15 17 19 22 25 30 34 34 34 35 35 34 34 33 31 29 29 29 29 28 27 27 27 27 28 28 28 28 28 29 30 30 29 29 28 28 25 23 24 25 23 21 21 22 22 22 22 23 26 27 27 26
12 13 15 14 12 10 7 5 5 6 12 16 14 12 16 19 22 29 32 32 32 33 33 33 30 27 27 27 26 26 26 26 26 26 26 27 27 26 26 27 27 28 28 29 29 29 29 27 24 23 25 23 22 21 21 22 23 23 22 23 24 25 25
13 13 15 16 15 13 11 9 6 6 10 13 12 11 14 16 18 23 30 32 30 31 32 31 28 26 26 27 27 27 27 27 27 26 25 26 27 26 25 26 26 27 28 28 28 28 28 28 27 25 24 23 22 22 22 23 24 22 20 20 21 22 23
15 16 18 18 17 15 13 12 10 8 7 7 8 12 16 19 20 24 29 30 30 31 31 30 28 27 27 28 28 28 28 27 27 26 25 24 25 26 26 26 26 26 25 25 27 28 27 27 26 25 25 24 23 22 22 22 21 19 17 17 19 20 20
17 20 21 20 18 16 14 13 12 9 8 7 6 8 11 15 19 23 26 28 29 30 30 30 30 29 28 28 28 27 27 27 26 26 26 23 22 25 29 29 28 28 27 25 27 28 28 27 26 24 24 23 22 21 21 20 19 19 17 17 16 15 17
20 22 23 21 19 18 16 14 14 12 10 8 7 7 7 8 11 15 19 23 25 26 27 28 28 27 27 27 27 26 26 27 26 26 27 25 22 23 29 31 30 30 30 29 29 29 28 28 27 27 26 25 22 21 20 20 19 19 18 17 15 14 15
22 22 23 23 21 19 19 17 16 14 12 10 9 8 8 7 7 8 10 12 15 17 18 21 23 24 23 23 25 27 27 27 26 27 28 27 24 23 28 31 30 30 31 31 31 30 30 29 28 27 27 27 25 24 23 21 18 17 17 17 16 15 15
Wind_Direction
202 201 200 198 197 197 196 195 194 193 194 194 195 197 197 198 199 205 215 219 218 217 217 216 217 218 219 220 221 222 223 224 226 227 229 230 232 234 236 237 236 234 234 235 237 238 239 241 240 242 243 237 235 234 230 230 230 230 231 233 235 238 239
203 202 200 198 198 199 198 196 195 194 194 195 196 197 198 199 203 208 215 219 218 216 216 215 216 216 217 218 220 221 222 223 225 227 228 230 231 232 234 235 235 234 233 234 238 241 240 241 241 242 241 237 234 234 232 231 232 232 234 236 235 236 240
205 202 200 199 199 200 198 196 196 195 195 195 196 199 201 202 207 212 215 218 217 215 215 215 215 216 216 217 219 221 221 223 224 226 227 228 230 231 232 233 233 233 234 234 237 240 241 240 239 240 239 237 234 234 232 231 232 232 236 240 238 237 240
211 206 202 201 201 200 198 196 197 196 196 196 198 201 203 205 208 213 217 219 217 214 214 214 214 215 216 217 219 220 221 222 223 224 225 226 228 230 231 233 233 233 234 235 235 237 238 238 237 237 236 234 232 232 231 230 232 233 234 239 241 239 241
213 210 206 203 202 201 198 198 198 197 197 198 199 200 202 205 208 211 217 220 219 216 214 214 214 214 215 216 218 219 220 221 221 223 223 223 226 228 229 232 233 232 232 234 235 234 233 233 234 235 234 232 232 232 232 231 233 235 235 235 239 241 242
212 209 206 203 202 201 198 198 199 199 199 197 198 199 198 200 205 209 215 219 219 218 216 215 214 214 215 216 218 219 220 220 221 222 223 222 223 226 228 230 231 232 232 232 233 233 232 230 230 232 233 232 232 232 233 234 234 236 237 235 236 239 240
212 207 205 203 202 200 198 199 200 200 201 198 196 196 195 197 201 204 208 213 217 217 216 215 215 215 216 216 217 219 220 220 220 221 222 222 223 225 227 228 229 231 231 231 232 232 231 229 228 230 231 232 232 232 233 234 234 236 238 238 237 237 239
211 206 205 204 202 201 199 200 200 199 199 196 193 193 194 196 198 200 202 208 212 213 213 214 215 216 217 216 218 219 219 219 220 220 220 221 223 224 225 227 228 229 229 230 230 230 230 229 228 228 229 230 231 230 231 233 234 234 236 238 239 238 238
210 205 206 206 204 202 201 200 199 198 196 193 193 194 195 195 196 199 201 203 205 208 211 211 212 215 216 216 217 218 218 219 220 219 219 219 221 223 224 225 226 226 226 227 227 227 228 228 228 228 228 229 231 230 231 233 233 233 234 237 239 239 239
211 207 207 208 205 202 201 199 196 195 194 193 194 194 194 194 196 198 199 200 202 206 208 207 206 211 216 217 216 217 218 218 219 219 219 219 221 222 222 223 224 224 224 223 224 225 226 226 227 229 229 229 230 231 231 232 233 232 233 235 238 239 239
213 209 208 210 207 203 199 196 193 193 193 193 194 194 194 195 197 197 197 199 202 203 204 203 202 205 213 217 216 216 217 217 218 219 219 218 220 220 221 220 221 224 224 221 221 223 224 224 225 227 229 229 230 232 233 233 233 233 233 235 236 237 239
220 213 213 215 211 205 199 195 193 192 192 193 194 195 195 196 197 197 198 200 201 200 199 200 200 201 208 215 217 217 218 217 217 218 218 218 218 218 219 217 217 222 224 222 219 221 223 224 224 226 229 230 231 233 234 234 234 233 233 234 236 236 237
222 218 220 220 212 206 200 197 196 193 193 196 196 195 195 197 198 197 198 199 199 198 197 197 198 198 203 211 216 217 218 217 217 217 217 218 218 217 217 217 215 218 222 222 220 221 223 224 225 226 228 231 232 233 235 236 235 235 234 234 235 236 236
230 231 225 215 205 201 198 199 198 195 196 198 197 197 197 198 199 198 198 198 197 196 196 196 197 198 202 209 213 216 218 217 216 216 217 218 218 217 217 216 214 215 220 223 222 221 222 224 226 227 228 230 232 234 235 236 237 237 236 235 235 236 237
263 251 233 214 203 200 200 200 198 198 202 202 198 198 199 199 199 199 198 197 196 196 196 195 196 197 201 208 214 217 218 216 216 216 216 217 218 218 218 218 217 217 221 224 223 221 221 222 225 227 229 230 231 232 234 236 237 238 238 237 236 236 237
285 274 255 228 211 205 205 204 202 205 209 208 202 199 199 199 199 199 198 197 195 195 195 194 196 198 202 209 216 218 217 216 216 216 216 216 217 218 218 220 221 222 224 226 225 222 222 222 223 226 229 231 231 231 233 235 238 239 240 239 238 237 237
306 303 291 267 237 220 214 211 208 209 213 215 212 206 201 199 200 200 199 197 196 195 194 194 197 202 207 212 215 216 217 217 217 217 216 216 217 218 218 220 222 224 226 227 226 224 224 224 225 226 227 231 233 233 234 236 239 241 241 240 239 238 238
313 310 306 295 277 250 232 222 214 211 216 220 217 210 204 201 199 198 198 198 197 195 194 194 198 204 210 212 212 215 218 218 217 217 217 216 217 218 218 219 222 224 226 226 226 226 226 226 227 228 227 229 233 234 235 237 239 241 242 241 239 238 238
311 309 306 299 289 274 258 243 226 218 220 220 216 212 209 204 201 200 199 198 196 194 193 194 197 203 209 210 212 217 220 219 217 217 217 217 217 217 218 219 221 224 225 226 227 228 228 228 230 231 230 230 232 234 235 237 239 241 241 240 239 237 237
310 308 305 300 293 282 270 258 242 228 222 220 218 215 210 205 204 204 200 195 193 192 193 193 194 200 207 210 214 219 221 219 219 217 217 217 216 217 217 218 220 222 225 227 229 230 230 231 232 233 233 232 233 234 235 235 238 241 241 239 238 236 235
306 306 303 299 295 289 281 268 252 235 223 219 216 211 205 201 202 200 194 192 192 192 192 193 193 197 205 211 216 219 220 220 219 219 218 218 217 217 217 218 220 222 224 227 229 231 232 232 234 235 236 235 235 236 236 235 237 240 240 239 237 235 234
303 301 299 297 295 290 284 272 254 238 225 218 211 204 200 199 197 195 193 192 191 191 191 192 193 196 205 213 218 219 219 219 219 219 219 218 217 217 218 219 220 221 223 225 228 231 233 234 235 236 238 238 238 237 237 237 238 239 239 238 235 234 234
299 296 296 297 294 289 282 270 253 237 224 214 206 200 198 197 194 191 191 191 190 190 191 192 195 202 210 217 219 219 219 218 218 218 218 218 218 218 218 219 220 221 222 224 227 230 233 235 235 236 238 239 240 240 240 240 241 240 239 237 235 234 234
298 294 296 297 294 290 280 262 245 230 217 208 202 198 195 193 190 188 188 189 189 189 189 192 201 209 216 220 219 219 218 218 218 218 218 218 218 218 219 220 221 221 222 224 226 229 233 234 235 236 238 239 241 241 241 241 242 243 241 239 237 235 235
297 295 296 297 296 292 279 254 235 222 210 203 198 193 190 188 186 184 186 187 188 188 188 194 205 214 218 219 218 217 217 217 217 217 218 219 219 219 220 221 221 221 222 224 226 229 231 234 235 237 238 240 241 242 242 242 244 245 244 242 240 238 237
293 295 297 299 299 294 277 249 226 211 203 198 193 189 185 183 181 183 186 186 186 188 192 201 212 218 218 217 216 215 215 215 215 216 218 220 221 221 222 221 221 221 222 223 225 228 231 233 235 237 239 241 242 243 243 243 243 245 245 243 242 239 237
291 292 296 301 300 290 270 238 218 208 200 195 189 183 179 178 178 183 187 185 186 193 197 205 215 218 216 215 214 213 213 213 213 215 217 220 222 223 223 223 223 223 224 224 226 229 231 233 235 238 240 242 243 244 244 243 243 244 245 244 242 240 238
295 295 297 303 301 286 259 232 218 209 199 190 183 179 178 179 181 185 188 189 194 198 197 202 212 216 215 212 211 210 210 211 212 214 217 220 221 222 224 225 225 227 228 228 229 231 232 235 237 238 239 241 243 245 246 246 245 244 245 245 243 240 238
304 305 307 308 306 295 257 229 217 205 193 187 183 181 180 180 183 189 194 197 199 197 195 202 212 215 212 208 207 208 208 209 211 213 215 218 219 221 223 225 227 229 231 230 230 232 234 235 236 237 238 239 241 243 245 246 246 244 243 244 243 240 238
335 332 330 326 320 326 191 216 212 199 190 186 183 181 180 183 188 194 198 201 200 195 196 205 212 213 210 207 206 207 208 210 212 213 215 218 220 222 224 226 228 230 232 232 232 232 233 234 232 231 232 233 234 235 236 238 241 241 241 241 240 239 237
10 15 11 6 11 51 97 157 185 182 182 182 182 180 178 185 195 199 199 200 200 196 196 205 210 211 209 207 206 208 210 211 212 214 217 219 222 224 225 226 228 231 232 233 232 232 233 234 231 229 229 227 227 230 231 232 236 240 241 240 237 236 236
26 35 33 32 48 74 109 144 138 137 150 160 171 179 180 187 199 203 200 200 201 199 200 206 211 210 208 208 207 208 209 210 212 214 216 218 220 223 224 224 226 229 230 231 231 232 232 230 227 230 232 229 225 227 230 231 234 238 242 240 236 235 236
29 40 42 43 57 75 96 127 132 136 147 147 146 160 176 185 197 204 205 205 204 203 206 210 211 208 206 205 204 204 205 207 208 210 212 215 216 218 222 223 224 227 229 229 230 232 232 231 227 228 230 227 224 226 229 231 235 240 244 244 241 238 237
34 49 49 46 54 66 80 97 103 122 151 157 154 157 165 169 177 195 205 206 204 204 207 210 209 207 204 202 201 201 203 205 206 205 207 213 214 214 218 223 224 225 229 230 230 231 232 233 231 226 223 223 225 227 228 230 236 239 240 243 245 245 242
48 60 56 52 53 57 66 75 81 94 117 141 164 178 181 181 184 194 200 202 203 204 206 207 206 205 204 202 202 204 204 205 208 206 204 209 214 215 216 219 219 221 224 228 232 233 231 231 232 232 229 228 228 229 228 230 235 236 238 244 250 254 252
57 62 57 57 57 56 58 59 62 76 93 100 125 163 179 187 194 199 202 203 205 206 207 206 204 203 204 202 203 207 208 207 210 210 207 206 209 217 221 220 219 221 220 221 227 231 230 227 227 228 229 227 227 229 232 235 238 240 247 256 259 257 255
60 64 59 57 55 53 56 60 60 64 73 83 101 124 141 162 182 195 202 206 208 207 208 209 206 206 207 205 203 207 210 209 209 211 212 208 206 217 227 226 224 227 228 226 228 231 233 232 228 225 226 228 228 231 235 239 242 246 253 259 255 243 238
59 69 65 58 53 50 52 58 63 63 64 69 80 100 120 134 148 168 186 197 200 200 203 204 204 205 207 207 208 211 213 212 211 214 218 214 208 215 227 229 229 231 232 231 233 235 237 239 237 234 233 234 235 237 240 243 245 246 246 244 239 232 229